• In Netherlands
  • List of Countries
  • For 7 days
  • Water Temperature
  • Satellite Maps
  • Weather Map
  • Weather Widgets
  • user-avatar
    Login

    Hourly Weather Canberra

    Today, 23 May, Tuesday

    Time Temperature Precipitation Wind Pressure Humidity
    00:00 +7°C° 0 mm 1 mps 712 mmHg 97%
    01:00 +7°C° 0 mm 1 mps 712 mmHg 97%
    02:00 +7°C° 0 mm 1 mps 712 mmHg 97%
    03:00 +7°C° 0 mm 1 mps 712 mmHg 97%
    04:00 +7°C° 0 mm 1 mps 711 mmHg 98%
    05:00 +7°C° 0 mm 1 mps 711 mmHg 98%
    06:00 +7°C° 0 mm 1 mps 711 mmHg 98%
    07:00 +7°C° 0 mm 1 mps 711 mmHg 98%
    08:00 +10°C° 0 mm 1 mps 712 mmHg 92%
    09:00 +12°C° 0 mm 1 mps 712 mmHg 86%
    10:00 +14°C° 0 mm 1 mps 712 mmHg 81%
    11:00 +15°C° 0 mm 2 mps 712 mmHg 74%
    12:00 +17°C° 0 mm 2 mps 711 mmHg 67%
    13:00 +18°C° 0 mm 2 mps 711 mmHg 60%
    14:00 +18°C° 0 mm 2 mps 710 mmHg 62%
    15:00 +17°C° 0 mm 2 mps 710 mmHg 64%
    16:00 +16°C° 0 mm 1 mps 709 mmHg 69%
    17:00 +14°C° 0 mm 1 mps 709 mmHg 77%
    18:00 +12°C° 0 mm 1 mps 709 mmHg 85%
    19:00 +10°C° 0 mm 1 mps 709 mmHg 93%
    20:00 +10°C° 0.1 mm 1 mps 709 mmHg 94%
    21:00 +10°C° 0.1 mm 1 mps 709 mmHg 95%
    22:00 +10°C° 0.1 mm 1 mps 709 mmHg 95%
    23:00 +10°C° 0 mm 1 mps 708 mmHg 96%

    Tomorrow, 24 May, Wednesday

    Time Temperature Precipitation Wind Pressure Humidity
    00:00 +10°C° 0 mm 1 mps 708 mmHg 96%
    01:00 +10°C° 0 mm 1 mps 708 mmHg 97%
    02:00 +10°C° 0 mm 1 mps 707 mmHg 97%
    03:00 +10°C° 0 mm 1 mps 707 mmHg 98%
    04:00 +10°C° 0 mm 2 mps 707 mmHg 98%
    05:00 +10°C° 0 mm 2 mps 707 mmHg 97%
    06:00 +10°C° 0 mm 2 mps 707 mmHg 97%
    07:00 +10°C° 0 mm 3 mps 708 mmHg 96%
    08:00 +11°C° 0 mm 3 mps 708 mmHg 91%
    09:00 +11°C° 0 mm 3 mps 708 mmHg 86%
    10:00 +12°C° 0 mm 4 mps 708 mmHg 82%
    11:00 +12°C° 0 mm 4 mps 708 mmHg 75%
    12:00 +13°C° 0 mm 4 mps 708 mmHg 69%
    13:00 +13°C° 0 mm 5 mps 708 mmHg 63%
    14:00 +13°C° 0 mm 4 mps 708 mmHg 66%
    15:00 +12°C° 0 mm 4 mps 708 mmHg 69%
    16:00 +11°C° 0 mm 4 mps 708 mmHg 72%
    17:00 +10°C° 0 mm 3 mps 709 mmHg 76%
    18:00 +9°C° 0 mm 3 mps 709 mmHg 81%
    19:00 +8°C° 0 mm 2 mps 710 mmHg 85%
    20:00 +7°C° 0 mm 2 mps 710 mmHg 88%
    21:00 +6°C° 0 mm 2 mps 711 mmHg 91%
    22:00 +7°C° 0 mm 1 mps 711 mmHg 93%
    23:00 +6°C° 0 mm 1 mps 711 mmHg 94%

    Day after tomorrow, 25 May, Thursday

    Time Temperature Precipitation Wind Pressure Humidity
    00:00 +6°C° 0 mm 1 mps 711 mmHg 95%
    01:00 +5°C° 0 mm 1 mps 711 mmHg 96%
    02:00 +5°C° 0 mm 1 mps 711 mmHg 96%
    03:00 +4°C° 0 mm 1 mps 711 mmHg 95%
    04:00 +4°C° 0 mm 1 mps 711 mmHg 95%
    05:00 +4°C° 0 mm 1 mps 711 mmHg 94%
    06:00 +4°C° 0 mm 1 mps 712 mmHg 93%
    07:00 +4°C° 0 mm 1 mps 712 mmHg 93%
    08:00 +7°C° 0 mm 1 mps 712 mmHg 81%
    09:00 +10°C° 0 mm 1 mps 713 mmHg 70%
    10:00 +13°C° 0 mm 1 mps 713 mmHg 59%
    11:00 +14°C° 0 mm 1 mps 713 mmHg 55%
    12:00 +15°C° 0 mm 2 mps 713 mmHg 52%
    13:00 +16°C° 0 mm 2 mps 712 mmHg 48%
    14:00 +15°C° 0 mm 2 mps 712 mmHg 53%
    15:00 +15°C° 0 mm 2 mps 712 mmHg 58%
    16:00 +14°C° 0 mm 2 mps 712 mmHg 62%
    17:00 +12°C° 0 mm 2 mps 712 mmHg 72%
    18:00 +9°C° 0 mm 2 mps 712 mmHg 82%
    19:00 +7°C° 0 mm 2 mps 712 mmHg 92%
    20:00 +7°C° 0 mm 2 mps 712 mmHg 93%
    21:00 +7°C° 0 mm 1 mps 712 mmHg 94%
    22:00 +7°C° 0 mm 1 mps 713 mmHg 95%
    23:00 +6°C° 0 mm 1 mps 712 mmHg 94%

    26 May, Friday

    Time Temperature Precipitation Wind Pressure Humidity
    00:00 +6°C° 0 mm 1 mps 712 mmHg 94%
    01:00 +6°C° 0 mm 1 mps 712 mmHg 94%
    02:00 +5°C° 0 mm 1 mps 712 mmHg 92%
    03:00 +5°C° 0 mm 1 mps 712 mmHg 91%
    04:00 +5°C° 0 mm 1 mps 712 mmHg 90%
    05:00 +5°C° 0 mm 1 mps 712 mmHg 89%
    06:00 +4°C° 0 mm 1 mps 712 mmHg 88%
    07:00 +4°C° 0 mm 1 mps 712 mmHg 87%
    08:00 +7°C° 0 mm 1 mps 713 mmHg 76%
    09:00 +11°C° 0 mm 1 mps 714 mmHg 65%
    10:00 +13°C° 0 mm 0 mps 714 mmHg 54%
    11:00 +14°C° 0 mm 0 mps 714 mmHg 51%
    12:00 +16°C° 0 mm 1 mps 713 mmHg 48%
    13:00 +19°C° 0 mm 1 mps 713 mmHg 45%
    14:00 +18°C° 0 mm 1 mps 713 mmHg 50%
    15:00 +16°C° 0 mm 1 mps 713 mmHg 55%
    16:00 +15°C° 0 mm 1 mps 712 mmHg 60%
    17:00 +12°C° 0 mm 1 mps 712 mmHg 71%
    18:00 +9°C° 0 mm 1 mps 712 mmHg 83%
    19:00 +7°C° 0 mm 1 mps 712 mmHg 94%
    20:00 +6°C° 0 mm 1 mps 712 mmHg 95%
    21:00 +6°C° 0 mm 1 mps 712 mmHg 96%
    22:00 +6°C° 0 mm 1 mps 713 mmHg 97%
    23:00 +6°C° 0 mm 1 mps 712 mmHg 98%

    27 May, Saturday

    Time Temperature Precipitation Wind Pressure Humidity
    00:00 +5°C° 0 mm 1 mps 712 mmHg 98%
    01:00 +5°C° 0 mm 1 mps 712 mmHg 99%
    02:00 +5°C° 0 mm 1 mps 711 mmHg 99%
    03:00 +5°C° 0 mm 1 mps 711 mmHg 99%
    04:00 +3°C° 0 mm 0 mps 711 mmHg 99%
    05:00 +4°C° 0 mm 1 mps 711 mmHg 99%
    06:00 +4°C° 0 mm 1 mps 711 mmHg 99%
    07:00 +3°C° 0 mm 1 mps 711 mmHg 99%
    08:00 +6°C° 0 mm 1 mps 712 mmHg 88%
    09:00 +10°C° 0 mm 1 mps 712 mmHg 78%
    10:00 +13°C° 0 mm 2 mps 712 mmHg 68%
    11:00 +14°C° 0 mm 2 mps 712 mmHg 61%
    12:00 +14°C° 0 mm 3 mps 711 mmHg 55%
    13:00 +16°C° 0 mm 3 mps 710 mmHg 49%
    14:00 +16°C° 0 mm 3 mps 710 mmHg 52%
    15:00 +14°C° 0 mm 3 mps 709 mmHg 56%
    16:00 +14°C° 0 mm 2 mps 709 mmHg 59%
    17:00 +12°C° 0 mm 2 mps 709 mmHg 69%
    18:00 +9°C° 0 mm 2 mps 709 mmHg 79%
    19:00 +7°C° 0 mm 2 mps 709 mmHg 89%
    20:00 +7°C° 0 mm 2 mps 709 mmHg 89%
    21:00 +7°C° 0 mm 2 mps 709 mmHg 90%
    22:00 +7°C° 0 mm 2 mps 709 mmHg 90%
    23:00 +7°C° 0 mm 3 mps 708 mmHg 89%

    28 May, Sunday

    Time Temperature Precipitation Wind Pressure Humidity
    00:00 +7°C° 0 mm 3 mps 708 mmHg 89%
    01:00 +8°C° 0 mm 3 mps 707 mmHg 88%
    02:00 +8°C° 0 mm 3 mps 707 mmHg 87%
    03:00 +8°C° 0 mm 3 mps 707 mmHg 86%
    04:00 +8°C° 0 mm 3 mps 706 mmHg 85%
    05:00 +8°C° 0 mm 3 mps 706 mmHg 84%
    06:00 +7°C° 0 mm 3 mps 706 mmHg 84%
    07:00 +7°C° 0 mm 3 mps 706 mmHg 83%
    08:00 +8°C° 0 mm 4 mps 707 mmHg 76%
    09:00 +9°C° 0 mm 5 mps 707 mmHg 69%
    10:00 +12°C° 0 mm 5 mps 707 mmHg 62%
    11:00 +11°C° 0 mm 6 mps 706 mmHg 60%
    12:00 +13°C° 0 mm 6 mps 706 mmHg 58%
    13:00 +14°C° 0 mm 7 mps 705 mmHg 56%
    14:00 +13°C° 0.1 mm 6 mps 705 mmHg 60%
    15:00 +11°C° 0.1 mm 6 mps 705 mmHg 64%
    16:00 +11°C° 0.1 mm 6 mps 706 mmHg 67%
    17:00 +10°C° 0 mm 5 mps 706 mmHg 70%
    18:00 +9°C° 0 mm 5 mps 707 mmHg 74%
    19:00 +8°C° 0 mm 4 mps 707 mmHg 77%
    20:00 +7°C° 0 mm 4 mps 707 mmHg 79%
    21:00 +7°C° 0 mm 3 mps 707 mmHg 80%
    22:00 +7°C° 0 mm 3 mps 708 mmHg 82%
    23:00 +5°C° 0 mm 3 mps 707 mmHg 83%
    Show more